Weather History for Budapest Ferihegy, Hungary

Change the Weather History Date:

Sunday, March 23, 2014

  Actual Average Record
Temperature  
Mean Temperature 59 °F -  
Max Temperature 68 °F 57 °F 69 °F (2012)
Min Temperature 50 °F 37 °F 15 °F (2003)
Degree Days  
Heating Degree Days 6    
Growing Degree Days 9 (Base 50)    
Moisture  
Dew Point 44 °F    
Average Humidity 64    
Maximum Humidity 88    
Minimum Humidity 37    
Precipitation  
Precipitation 0.00 in - - ()
Sea Level Pressure  
Sea Level Pressure 29.69 in    
Wind  
Wind Speed 8 mph ()    
Max Wind Speed 22 mph    
Max Gust Speed -    
Visibility 6.2 miles    
Events Rain    
Averages and records for this station are not official NWS values.
T = Trace of Precipitation, MM = Missing Value Source: Averaged Metar Reports

Daily Weather History Graph

Daily Weather History Graph

Search for Another Location

Airport:

Trip Planner

Search our weather history database for the weather conditions in past years. The results will help you decide how hot, cold, wet, or windy it might be!

Date:

Astronomy

Mar. 23, 2014 Rise Set
Actual Time 5:40 AM CET 5:59 PM CET
Civil Twilight 5:09 AM CET 6:30 PM CET
Nautical Twilight 4:33 AM CET 7:06 PM CET
Astronomical Twilight 3:56 AM CET 7:44 PM CET
Moon 12:19 AM CET (3/23) 9:43 AM CET (3/23)
Length of Visible Light 13h 20m
Length of Day
12h 19m
Waning Gibbous, 57% of the Moon is Illuminated
Mar 23
Waning Gibbous
Mar 24
Last Quarter
Mar 30
New
Apr 7
First Quarter
Apr 15
Full

Hourly Weather History & Observations

Time (CET) Temp. Dew Point Humidity Pressure Visibility Wind Dir Wind Speed Gust Speed Precip Events Conditions
12:00 AM 50.0 °F 39.2 °F 66% 29.77 in - SSE 6.9 mph - N/A   Clear
12:30 AM 51.8 °F 41.0 °F 67% 29.77 in - South 6.9 mph - N/A   Clear
1:00 AM 53.6 °F 41.0 °F 62% 29.77 in - South 6.9 mph - N/A   Clear
1:30 AM 53.6 °F 41.0 °F 62% 29.74 in - South 9.2 mph - N/A   Clear
2:00 AM 53.6 °F 41.0 °F 62% 29.74 in - South 8.1 mph - N/A   Clear
2:30 AM 51.8 °F 41.0 °F 67% 29.74 in - South 6.9 mph - N/A   Clear
3:00 AM 51.8 °F 41.0 °F 67% 29.74 in - South 8.1 mph - N/A   Clear
3:30 AM 50.0 °F 41.0 °F 71% 29.74 in - South 4.6 mph - N/A   Clear
4:00 AM 51.8 °F 41.0 °F 67% 29.74 in - South 8.1 mph - N/A   Clear
4:30 AM 50.0 °F 41.0 °F 71% 29.74 in - South 4.6 mph - N/A   Clear
5:00 AM 50.0 °F 41.0 °F 71% 29.74 in - SSE 5.8 mph - N/A   Clear
5:30 AM 50.0 °F 42.8 °F 76% 29.74 in - SSE 5.8 mph - N/A   Clear
6:00 AM 50.0 °F 41.0 °F 71% 29.74 in - South 6.9 mph - N/A   Clear
6:30 AM 50.0 °F 41.0 °F 71% 29.74 in - Variable 3.5 mph - N/A   Clear
7:00 AM 51.8 °F 42.8 °F 71% 29.74 in - SSE 5.8 mph - N/A   Clear
7:30 AM 51.8 °F 42.8 °F 71% 29.74 in - South 8.1 mph - N/A   Clear
8:00 AM 53.6 °F 42.8 °F 67% 29.74 in - South 8.1 mph - N/A   Clear
8:30 AM 53.6 °F 42.8 °F 67% 29.74 in - SSE 6.9 mph - N/A   Clear
9:00 AM 57.2 °F 42.8 °F 59% 29.74 in - South 6.9 mph - N/A   Clear
9:30 AM 59.0 °F 42.8 °F 55% 29.74 in - South 8.1 mph - N/A   Clear
10:00 AM 62.6 °F 42.8 °F 48% 29.74 in - South 10.4 mph - N/A   Clear
10:30 AM 62.6 °F 42.8 °F 48% 29.71 in 6.2 mi South 13.8 mph - N/A   Scattered Clouds
11:00 AM 64.4 °F 42.8 °F 45% 29.71 in 6.2 mi South 13.8 mph - N/A   Scattered Clouds
11:30 AM 64.4 °F 41.0 °F 42% 29.71 in - South 13.8 mph - N/A   Clear
12:00 PM 66.2 °F 42.8 °F 43% 29.68 in - South 15.0 mph - N/A   Clear
12:30 PM 68.0 °F 44.6 °F 43% 29.68 in - South 15.0 mph - N/A   Clear
1:00 PM 66.2 °F 41.0 °F 40% 29.65 in - South 18.4 mph - N/A   Clear
1:30 PM 68.0 °F 41.0 °F 37% 29.65 in - South 18.4 mph - N/A   Clear
2:00 PM 68.0 °F 41.0 °F 37% 29.65 in - South 17.3 mph - N/A   Clear
2:30 PM 66.2 °F 39.2 °F 37% 29.62 in - South 19.6 mph - N/A   Clear
3:00 PM 66.2 °F 39.2 °F 37% 29.62 in - South 19.6 mph - N/A   Clear
3:30 PM 66.2 °F 41.0 °F 40% 29.62 in - South 16.1 mph - N/A   Clear
4:00 PM 66.2 °F 41.0 °F 40% 29.62 in - South 15.0 mph - N/A   Clear
4:30 PM 59.0 °F 46.4 °F 63% 29.65 in 6.2 mi SW 21.9 mph - N/A   Unknown
5:00 PM 57.2 °F 48.2 °F 72% 29.65 in 6.2 mi SW 13.8 mph - N/A Rain Light Rain Showers
5:30 PM 57.2 °F 48.2 °F 72% 29.65 in - SW 4.6 mph - N/A   Clear
6:00 PM 55.4 °F 48.2 °F 77% 29.65 in 6.2 mi Variable 3.5 mph - N/A Rain Light Rain
6:30 PM 53.6 °F 48.2 °F 82% 29.65 in - SE 4.6 mph - N/A   Clear
7:00 PM 53.6 °F 48.2 °F 82% 29.65 in 6.2 mi SSE 4.6 mph - N/A Rain Light Rain
7:30 PM 55.4 °F 48.2 °F 77% 29.65 in 6.2 mi East 6.9 mph - N/A Rain Light Rain
8:00 PM 53.6 °F 48.2 °F 82% 29.65 in - East 4.6 mph - N/A   Clear
8:30 PM 53.6 °F 48.2 °F 82% 29.65 in 6.2 mi East 6.9 mph - N/A Rain Light Rain
9:00 PM 51.8 °F 48.2 °F 88% 29.65 in - ESE 8.1 mph - N/A   Clear
9:30 PM 53.6 °F 48.2 °F 82% 29.62 in - ESE 8.1 mph - N/A   Clear
10:00 PM 53.6 °F 48.2 °F 82% 29.62 in 6.2 mi SE 8.1 mph - N/A Rain Light Rain
10:30 PM 55.4 °F 46.4 °F 72% 29.65 in 6.2 mi SSW 5.8 mph - N/A Rain Light Rain
11:00 PM 53.6 °F 48.2 °F 82% 29.65 in 6.2 mi SE 5.8 mph - N/A Rain Light Rain
11:30 PM 51.8 °F 48.2 °F 88% 29.62 in - NE 5.8 mph - N/A   Clear